This is the latest recevied weather packets stored in our database for station/object KP4FJC. If no packets are shown the sender has not sent any weather packets the latest 10 day(s).
| Time | Temp. | Humidity | Pressure | Rain* | Wind** | Luminosity | Snow |
|---|---|---|---|---|---|---|---|
| 1778102772 | 31.11° C | 62% | 1016.6 hPa | 0 mm | - | 137 W/m² | - |
| 1778102467 | 31.11° C | 61% | 1016.6 hPa | 0 mm | - | 152 W/m² | - |
| 1778102163 | 31.67° C | 61% | 1016.5 hPa | 0 mm | - | 170 W/m² | - |
| 1778101860 | 31.67° C | 61% | 1016.3 hPa | 0 mm | - | 190 W/m² | - |
| 1778101556 | 31.11° C | 61% | 1016.5 hPa | 0 mm | - | 209 W/m² | - |
| 1778101253 | 31.67° C | 62% | 1016.4 hPa | 0 mm | - | 229 W/m² | - |
| 1778100950 | 31.67° C | 61% | 1016.3 hPa | 0 mm | - | 248 W/m² | - |
| 1778100645 | 31.67° C | 61% | 1016.3 hPa | 0 mm | - | 269 W/m² | - |
| 1778100344 | 31.67° C | 62% | 1016.5 hPa | 0 mm | - | 291 W/m² | - |
| 1778100040 | 31.67° C | 61% | 1016.2 hPa | 0 mm | - | 313 W/m² | - |
| 1778099739 | 31.67° C | 61% | 1016.3 hPa | 0 mm | - | 332 W/m² | - |
| 1778099435 | 32.22° C | 60% | 1016.3 hPa | 0 mm | - | 354 W/m² | - |
| 1778099132 | 32.22° C | 58% | 1016.2 hPa | 0 mm | - | 376 W/m² | - |
| 1778098828 | 32.22° C | 58% | 1016.1 hPa | 0 mm | - | 397 W/m² | - |
| 1778098527 | 32.22° C | 59% | 1016.4 hPa | 0 mm | - | 419 W/m² | - |
| 1778098222 | 32.22° C | 57% | 1016.2 hPa | 0 mm | - | 440 W/m² | - |
| 1778097919 | 32.22° C | 59% | 1016.3 hPa | 0 mm | - | 463 W/m² | - |
| 1778097616 | 32.22° C | 58% | 1016.3 hPa | 0 mm | - | 483 W/m² | - |
| 1778097313 | 31.67° C | 59% | 1016.5 hPa | 0 mm | - | 500 W/m² | - |
| 1778097009 | 32.78° C | 58% | 1016.3 hPa | 0 mm | - | 521 W/m² | - |
| 1778096707 | 32.78° C | 58% | 1016.3 hPa | 0 mm | - | 541 W/m² | - |
| 1778096403 | 31.67° C | 58% | 1016.4 hPa | 0 mm | - | 561 W/m² | - |
| 1778096101 | 32.22° C | 57% | 1016.6 hPa | 0 mm | - | 584 W/m² | - |
| 1778095796 | 32.78° C | 56% | 1016.6 hPa | 0 mm | - | 604 W/m² | - |
| 1778095494 | 32.78° C | 55% | 1016.4 hPa | 0 mm | - | 622 W/m² | - |
* Rain latest hour (hover to see other rain measurements)
** Current wind speed in m/s (hover to see current wind gust speed)